Regional Weather Roundup
Issued by NWS

Home | Current Version | Previous Version | Graphics & Text | Print | Product List | Glossary On
Versions: 1 2 3 4 5 6 7 8 9 10 11 12 13 14 15 16 17 18 19 20 21 22 23 24 25 26 27 28 29 30 31 32 33 34 35 36 37 38 39 40 41 42 43 44 45 46 47 48 49 50
000
ASUS43 KIND 290609
RWRIN

WEATHER ROUNDUP FOR INDIANA
NATIONAL WEATHER SERVICE INDIANAPOLIS IN
200 AM EDT MON AUG 29 2016

NOTE: "FAIR" INDICATES FEW OR NO CLOUDS BELOW 12,000 FEET WITH NO
SIGNIFICANT WEATHER AND/OR OBSTRUCTIONS TO VISIBILITY.

* - STATION DOES NOT REPORT WEATHER SUCH AS PRECIPITATION OR FOG.

+ - STATION NOT QUALITY CONTROLLED BY THE NATIONAL WEATHER SERVICE.
    USE DATA WITH CAUTION...ESPECIALLY DEWPOINT AND RELATIVE
    HUMIDITY OBSERVATIONS.

INZ001>003-010>013-019-020-290700-
NORTHWEST INDIANA

CITY           SKY/WX    TMP DP  RH WIND       PRES   REMARKS
GARY /AIRPORT/ FAIR      70  70 100 CALM      30.23S
KNOX *+        MOCLDY    66  59  77 N3        30.22S VSB 1/4
LA PORTE +     MOCLDY   N/A N/A N/A CALM      30.24R
MICHIGAN CITY+ FAIR      68  68 100 MISG      30.23S FOG
MONTICELLO +   CLEAR     69  65  86 CALM      30.20F
6HR MIN TEMP:  68; 6HR MAX TEMP:  75;

RENSSELAER +   CLOUDY    72  70  94 CALM      30.20F
VALPARAISO     FAIR      68  67  96 N3        30.23S
6HR MIN TEMP:  67; 6HR MAX TEMP:  74; 6HR PCP: TRACE;


$$

LMZ046-743>745-290700-
SOUTHERN LAKE MICHIGAN

STATION/POSITION TIME  TEMP    WIND        PRES    WAVE
                       AIR SEA DIR/SP/G            HT
                 (UTC) (F)     (DEG/KT/KT) (MB)    (FT)
BURNS HARBOR     0503   72      80/  5/  9 1023.7S
MICHIGAN CITY    0500   71      30/  7/  7   N/A
5NW MICH CITY    0600   74 76  100/  4/  6   N/A     2

$$

INZ004-005-014>016-021>024-290700-
NORTH CENTRAL INDIANA

CITY           SKY/WX    TMP DP  RH WIND       PRES   REMARKS
GOSHEN         FOG       66  64  93 CALM      30.23F VSB 1/2
6HR MIN TEMP:  67; 6HR MAX TEMP:  74;

LOGANSPORT +   PTCLDY    68  68 100 CALM      30.21F
PERU/GRISSOM   PTCLDY    69  69  99 N2        30.20F
6HR MIN TEMP:  69; 6HR MAX TEMP:  72;

ROCHESTER +    FAIR      70  70 100 CALM      30.23S
SOUTH BEND     FAIR      69  68  96 CALM      30.23F
6HR MIN TEMP:  68; 6HR MAX TEMP:  76;

WARSAW +       FAIR      68  68 100 CALM      30.24S FOG

$$

INZ006>009-017-018-025>027-290700-
NORTHEAST INDIANA

CITY           SKY/WX    TMP DP  RH WIND       PRES   REMARKS
ANGOLA *+      MOCLDY    68  61  77 CALM      30.24F
AUBURN +       FAIR      66  64  94 CALM      30.25S
FORT WAYNE     PTCLDY    67  65  93 N3        30.23S
6HR MIN TEMP:  67; 6HR MAX TEMP:  74; 6HR PCP: TRACE;

HUNTINGTON +   CLEAR     66  65  96 N3        30.21F
6HR MIN TEMP:  66; 6HR MAX TEMP:  72; 6HR PCP:  0.01;


$$

INZ028-029-035-036-043>045-051>053-290700-
WEST CENTRAL INDIANA

CITY           SKY/WX    TMP DP  RH WIND       PRES   REMARKS
CRAWFORDSVL +  CLEAR     68  68 100 N3        30.20F
6HR MIN TEMP:  68; 6HR MAX TEMP:  78;

GREENCASTLE +  PTCLDY    72  72 100 CALM      30.19F
LAFAYETTE      TSTM      70  70 100 SW7       30.20S FOG
6HR MIN TEMP:  70; 6HR MAX TEMP:  74;

TERRE HAUTE    CLOUDY    71  68  90 CALM      30.17F
6HR MIN TEMP:  71; 6HR MAX TEMP:  83; 6HR PCP: TRACE;


$$

INZ030>032-037>040-046>048-054>057-064-065-290700-
CENTRAL INDIANA

CITY           SKY/WX    TMP DP  RH WIND       PRES   REMARKS
INDIANAPOLIS   PTCLDY    73  68  84 CALM      30.18F
6HR MIN TEMP:  72; 6HR MAX TEMP:  81;

-EAGLE CREEK   CLEAR     72  69  90 CALM      30.19F
6HR MIN TEMP:  72; 6HR MAX TEMP:  79;

KOKOMO *+      CLEAR     70  66  88 CALM      30.21F
6HR MIN TEMP:  68; 6HR MAX TEMP:  75;

MARION +       CLEAR     68  67  96 CALM      30.22S
MT COMFORT *+  CLEAR     68  66  94 E3        30.21S
SHELBYVILLE    CLEAR     70  67  90 NE7       30.19S
6HR MIN TEMP:  70; 6HR MAX TEMP:  82;

ZIONSVILLE +   CLEAR     67  66  99 CALM      30.21F
6HR MIN TEMP:  67; 6HR MAX TEMP:  75;


$$

INZ033-034-041-042-049-050-058-059-290700-
EAST CENTRAL INDIANA

CITY           SKY/WX    TMP DP  RH WIND       PRES   REMARKS
MUNCIE         CLEAR     69  67  93 W3        30.21F FOG
6HR MIN TEMP:  69; 6HR MAX TEMP:  78; 6HR PCP:  0.30;


$$

INZ060-061-067>069-081>083-085>088-290700-
SOUTHWEST INDIANA

CITY           SKY/WX    TMP DP  RH WIND       PRES   REMARKS
EVANSVILLE     PTCLDY    74  71  91 NE5       30.15F
6HR MIN TEMP:  74; 6HR MAX TEMP:  88;

HUNTINGBURG *+ PTCLDY    73  68  83 NE5       30.17F
6HR MIN TEMP:  73; 6HR MAX TEMP:  84;

WASHINGTON +   CLOUDY    72  72 100 MISG      30.17F
6HR MIN TEMP:  72; 6HR MAX TEMP:  85; 6HR PCP:  0.12;


$$

INZ062-063-066-070>080-084-089>092-290700-
SOUTH CENTRAL AND SOUTHEAST INDIANA

CITY           SKY/WX    TMP DP  RH WIND       PRES   REMARKS
BLOOMINGTON    CLOUDY    71  68  90 CALM      30.19F
6HR MIN TEMP:  70; 6HR MAX TEMP:  81; 6HR PCP: TRACE;

MADISON *+     CLEAR     68  66  94 CALM      30.20S

$$




USA.gov is the U.S. government's official web portal to all federal, state and local government web resources and services.